Notices

What's New in latest Release from April 7th, 2021:

- Updated Glossary, including Speed of Maximum Gust, and Total Hourly Precipitation

- Updated national and regional climate services offices contacts and prices information

- Addition of station inventory lists for 1981-2010, 1971-2000, and 1961-1990 Normals.

If you haven't already, please take our survey and provide feedback about our website: https://eccc.sondage-survey.ca/f/LanguageSelection.aspx?s=442ca660-fcf1-47c0-95a9-59707d6fd709

Hourly Data Report for April 08, 2021

CORNER BROOK
NEWFOUNDLAND
Current Station Operator: ECCC - MSC

48°56'00.000" N
57°55'00.000" W
151.80 m
8401298
71973
WKB

Download Data

Hourly Data (April 2021)
Hourly Data Report for April 8, 2021
TIME
LST
Temp Definition
°C
Dew Point Definition
°C
Rel Hum Definition
%
Precip. Amount Definition
mm

Wind Dir Definition
10's deg

Wind Spd Definition
km/h
Visibility Definition
km
Stn Press Definition
kPa
Hmdx Definition


Wind Chill Definition


Weather Definition


00:30 2.7 1.5 92 0.0 7 12   100.07     LegendNANA
01:30 2.4 1.2 92 0.0 5 19   100.08     LegendNANA
02:30 2.4 1.2 92 0.0 6 14   100.08     LegendNANA
03:30 2.3 1.2 92 0.0 5 11   100.08     LegendNANA
04:30 2.2 1.1 93 0.0 5 11   100.07     LegendNANA
05:30 2.6 1.4 92 0.0 7 4   100.08     LegendNANA
06:30 3.0 1.7 92 0.0 5 5   100.13     LegendNANA
07:30 3.9 2.4 90 0.0 5 12   100.17     LegendNANA
08:30 5.7 3.0 83 0.0 4 8   100.17     LegendNANA
09:30 6.5 3.3 80 0.0 4 15   100.18     LegendNANA
10:30 7.8 4.0 77 0.0 3 13   100.16     LegendNANA
11:30 9.3 4.5 72 0.0 4 9   100.14     LegendNANA
12:30 9.7 4.7 71 0.0 5 16   100.09     LegendNANA
13:30 10.0 4.7 70 0.0 4 15   100.05     LegendNANA
14:30 12.1 5.3 63 0.0 7 17   100.00     LegendNANA
15:30 12.6 5.0 60 0.0 7 14   99.98     LegendNANA
16:30 13.0 4.8 58 0.0 7 12   99.97     LegendNANA
17:30 10.5 4.4 66 0.0 8 13   100.00     LegendNANA
18:30 8.3 3.8 73 0.0 7 13   100.01     LegendNANA
19:30 5.9 3.0 81 0.0 2 5   100.01     LegendNANA
20:30 5.0 2.8 86 0.0 6 7   100.04     LegendNANA
21:30 4.1 2.3 88 0.0 5 8   100.02     LegendNANA
22:30 4.0 2.4 89 0.0 7 11   99.99     LegendNANA
23:30 3.7 2.2 90 0.0 4 6   99.98     LegendNANA

Notes on Data Quality.

Legend

  • E = Estimated
  • M = Missing
  • NA = Not Available*
  • [empty] = Indicates an unobserved value
Date modified: